Location: Newark
(41.9364°N, 2.8061°E)
Time: 21:30:36
(UTC+00:00)

A-11 Canister half - Pass Details

Date: 27 February 2020
Orbit: 1516 x 1683 km, 47.2° (Epoch: 09 April)

Event Time Altitude Azimuth Distance (km) Brightness Sun altitude
Rises 20:05:15 0° 296° (WNW) 4,852 12.8 -28.4°
Reaches altitude 10° 20:08:25 10° 295° (WNW) 3,842 12.0 -28.9°
Maximum altitude 20:18:06 72° 213° (SSW) 1,642 9.0 -30.6°
Enters shadow 20:20:26 54° 152° (SSE) 1,837 9.0 -31.1°
